Regional Weather Roundup
Issued by NWS State College, PA

Home | Current Version | Previous Version | Graphics & Text | Print | Product List | Glossary On
Versions: 1 2 3 4 5 6 7 8 9 10 11 12 13 14 15 16 17 18 19 20 21 22 23 24 25 26 27 28 29 30 31 32 33 34 35 36 37 38 39 40 41 42 43 44 45 46 47 48 49 50
000
ASUS41 KCTP 021703
RWRCTP

REGIONAL WEATHER ROUNDUP
NATIONAL WEATHER SERVICE STATE COLLEGE PA
100 PM EDT TUE SEP 02 2014

Note: "fair" indicates few or no clouds below 12,000 feet with no
significant weather and/or obstructions to visibility.

* = STATION THAT DOES NOT REPORT PRECIPITATION /E.G. RAIN...SNOW...ETC/
    THUNDER OR FOG.

PAZ002>004-007>009-013>016-020>023-029>032-021800-
WESTERN PENNSYLVANIA

CITY           SKY/WX    TMP DP  RH WIND       PRES   REMARKS
ERIE           CLOUDY    75  67  76 W6        29.87F
MEADVILLE      CLOUDY    75  66  73 SW5       29.91F
FRANKLIN*      CLOUDY    75  64  69 S5        29.93F
NEW CASTLE     FAIR      80  70  71 CALM      29.91F
BEAVER COUNTY  PTSUNNY   77  68  73 S9        29.92F
BUTLER*        PTSUNNY   79  66  65 S8        29.94F
PITTSBURGH INT CLOUDY    79  68  69 S8        29.93F
PITTSBURGH     MOSUNNY   79  67  66 S9        29.93F
INDIANA*       CLOUDY    79  70  73 SW6G14    29.99F
LATROBE        PTSUNNY   79  73  83 S12G23    29.96F
WASHINGTON CO* PTSUNNY   79  70  73 S10       29.95F
$$

PAZ004>006-010>012-017>019-024>028-033>037-041-042-045-046-049>053-021800-
CENTRAL PENNSYLVANIA

CITY           SKY/WX    TMP DP  RH WIND       PRES   REMARKS
BRADFORD       PTSUNNY   75  61  61 SW6       29.96F
DUBOIS         MOSUNNY   76  65  68 SW10      29.95F
CLEARFIELD     PTSUNNY   79  67  66 SW7       29.96F
JOHNSTOWN      PTSUNNY   75  66  73 SW8       30.01F
ALTOONA        CLOUDY    79  68  69 SW3       29.99F
STATE COLLEGE  MOSUNNY   82  66  57 SW10      29.96F
WILLIAMSPORT   MOSUNNY   86  66  51 W12       29.88F
SELINSGROVE    PTSUNNY   84  70  62 SW6       29.92F
FT INDIANTOWN  MOSUNNY   87  71  59 SW12      29.94F
CAPITAL CITY   MOSUNNY   87  68  52 SW10G18   29.93F
HARRISBURG     PTSUNNY   88  68  51 W10       29.92F
YORK           PTSUNNY   86  69  56 W6        29.95F
$$

PAZ038>040-043-044-047-048-054-055-060>062-067>071-021800-
EASTERN PENNSYLVANIA

CITY           SKY/WX    TMP DP  RH WIND       PRES   REMARKS
SCRANTON       MOSUNNY   85  66  53 W13       29.93F
MOUNT POCONO   PTSUNNY   81  66  60 W8        29.99F
ALLENTOWN      MOSUNNY   88  69  53 W9        29.92F
QUAKERTOWN*    MOSUNNY   86  72  62 MISG      29.95F
READING        MOSUNNY   89  68  49 W6        29.92F
LANCASTER      MOSUNNY   84  68  58 W7        29.94F
COATESVILLE    MOSUNNY   86  73  66 W7        29.97F
POTTSTOWN      MOSUNNY   85  70  60 VRB6      29.95F
BLUE BELL      MOSUNNY   90  72  55 W7        29.93F HX  96
DOYLESTOWN     MOSUNNY   87  69  54 W6        29.92F
WILLOW GROVE   NOT AVBL
NORTH PHILA    PTSUNNY   91  68  46 W9        29.93F HX  95
PHILADELPHIA   PTSUNNY   90  69  50 S10       29.92F
$$


USA.gov is the U.S. government's official web portal to all federal, state and local government web resources and services.